Flag for U.S.A. Weather past 2 weeks in Syracuse, New York, U.S.A.

Now
66 °F

Broken clouds.


Feels Like: 66 °F
Forecast: 58 / 76 °F
Wind: 5 mph from Northwest

Location: Syracuse Hancock International Airport

Current Time: Jun 29, 2015 at 8:17:48 PM

Latest Report: Jun 29, 2015 at 7:54 PM


Visibility: 10 mi

Pressure: 29.89 "Hg

Humidity: 68%

Dew point: 55 °F

Location of SyracuseLocation

Historic Weather in Syracuse — Graph

°F

Syracuse temperature yesterday

Maximum temperature yesterday: 64 °F (at 3:54 PM)
Minimum temperature yesterday: 54 °F (at 3:54 AM)
Average temperature yesterday: 59 °F

Past Weeks' High & Low Weather Summary

 TemperatureHumidityPressure
High84 °F (Jun 23, 1:54 PM)100% (Jun 15, 12:54 AM)30.16 "Hg (Jun 15, 12:54 AM)
Low49 °F (Jun 20, 3:54 AM)7% (Jun 21, 2:54 AM)28.69 "Hg (Jun 21, 3:54 AM)
Average68 °F76%29.91 "Hg
* Reported Jun 14 6:54 PM — Jun 29 6:54 PM, Syracuse, Weather by CustomWeather, © 2015

Note: Actual official high and low records may vary slightly from our data, if they occured in-between our weather recording intervals... More about our weather records

Advertising

Syracuse weather history for previous 24 hours

 ConditionsComfort  
Time TempWeatherWind HumidityBarometerVisibility
6:54 PM
Mon, Jun 29
70 °FBroken clouds.8 mph57%29.88 "Hg10 mi
5:54 PM71 °FPartly sunny.10 mph59%29.87 "Hg10 mi
4:54 PM69 °FBroken clouds.9 mph66%29.87 "Hg10 mi
3:54 PM68 °FMore clouds than sun.8 mph68%29.88 "Hg10 mi
2:54 PM66 °FCloudy.7 mph87%29.88 "Hg10 mi
1:54 PM67 °FCloudy.8 mph73%29.88 "Hg10 mi
12:54 PM63 °FLight rain. Fog.16 mph87%29.88 "Hg6 mi
11:54 AM64 °FMostly cloudy.8 mph87%29.87 "Hg10 mi
10:54 AM63 °FDrizzle. More clouds than sun.9 mph90%29.87 "Hg9 mi
10:01 AM61 °FLight rain. Fog.8 mph97%29.88 "Hg2 mi
8:54 AM60 °FLight rain. Fog.9 mph96%29.85 "Hg4 mi
7:57 AM59 °FDrizzle. Fog.6 mph100%29.84 "Hg2 mi
6:54 AM59 °FLow clouds.7 mph93%29.82 "Hg10 mi
5:54 AM58 °FLow clouds.7 mph97%29.80 "Hg10 mi
4:54 AM58 °FDrizzle. Mostly cloudy.12 mph97%29.78 "Hg10 mi
3:54 AM58 °FLight rain. Fog.9 mph100%29.77 "Hg6 mi
3:02 AM58 °FLight rain. Fog.12 mph100%29.77 "Hg4 mi
2:54 AM58 °FLight rain. Fog.10 mph97%29.76 "Hg2 mi
1:54 AM57 °FDrizzle. Fog.13 mph100%29.75 "Hg6 mi
12:54 AM57 °FLight rain. Mostly cloudy.10 mph100%29.74 "Hg10 mi
11:54 PM
Sun, Jun 28
59 °FLight rain. Mostly cloudy.12 mph96%29.73 "Hg9 mi
10:54 PM60 °FDrizzle. Mostly cloudy.12 mph96%29.72 "Hg9 mi
9:59 PM62 °FLight rain. Fog.No wind96%29.71 "Hg6 mi
Weather by CustomWeather, © 2015

See weather overviewHow to use our weather pages